[Iaude] MPEC Q144: 2020 QP3 [a=2.33,e=0.51,i=3.0,H=22.8]

mpec at marsden.cfa.harvard.edu mpec at marsden.cfa.harvard.edu
Fri Aug 21 03:44:45 EDT 2020


M.P.E.C. 2020-Q144                              Issued 2020 August 21, 07:43 UT

     The Minor Planet Electronic Circulars contain information on unusual
         minor planets and routine data on comets.  They are published
    on behalf of Division F of the International Astronomical Union by the
          Minor Planet Center, Smithsonian Astrophysical Observatory,
                          Cambridge, MA 02138, U.S.A.

             Prepared using the Tamkin Foundation Computer Network

                              MPC at CFA.HARVARD.EDU
            URL https://www.minorplanetcenter.net/    ISSN 1523-6714

                                    2020 QP3                                    


Observations:
     K20Q03P  C2020 08 18.31029 22 55 18.82 -01 37 45.8          21.4 GVEQ144G96
     K20Q03P  C2020 08 18.31549 22 55 18.98 -01 37 41.4                VEQ144G96
     K20Q03P  C2020 08 18.32070 22 55 19.07 -01 37 36.0                VEQ144G96
     K20Q03P  C2020 08 18.32589 22 55 19.20 -01 37 30.6          21.9 GVEQ144G96
     K20Q03P* C2020 08 19.42911122 55 54.920-01 19 13.80         21.75wUEQ144F51
     K20Q03P  C2020 08 19.44102822 55 55.185-01 19 01.84         21.54wUEQ144F51
     K20Q03P  C2020 08 19.45294722 55 55.456-01 18 49.92         21.64wUEQ144F51
     K20Q03P  C2020 08 19.46493122 55 55.717-01 18 37.89         21.90wUEQ144F51
     K20Q03P  C2020 08 21.03381 22 56 44.80 -00 52 17.7          22.2 VVEQ144033
     K20Q03P  C2020 08 21.03741 22 56 44.88 -00 52 13.4          21.8 VVEQ144033
     K20Q03P  C2020 08 21.04099 22 56 44.97 -00 52 09.8          22.2 VVEQ144033
     K20Q03P  C2020 08 21.04478 22 56 45.09 -00 52 06.2          21.8 VVEQ144033
     K20Q03P KC2020 08 21.24322322 56 51.84 -00 48 37.5          21.8 VuEQ144H21
     K20Q03P KC2020 08 21.25721822 56 52.16 -00 48 23.2          21.8 VuEQ144H21
     K20Q03P KC2020 08 21.27401422 56 52.56 -00 48 05.9          21.9 VuEQ144H21

Observer details:
033 Karl Schwarzschild Observatory, Tautenburg.  Observers S. Melnikov, F.
    Ludwig, B. Stecklum.  Measurer B. Stecklum.  1.34-m f/3 Schmidt + CCD.
F51 Pan-STARRS 1, Haleakala.  Observers J. Bulger, T. Lowe, A. Schultz, M.
    Willman.  Measurers K. Chambers, S. Chastel, T. de Boer, L. Denneau, J.
    Fairlamb, H. Flewelling, M. Huber, C.-C. Lin, E. Magnier, Y. Ramanjooloo,
    R. Wainscoat, R. Weryk.  1.8-m Ritchey-Chretien + CCD.
G96 Mt. Lemmon Survey.  Observer H. Groeller.  Measurers B. Gray, D. Rankin,
    F. C. Shelly.  1.5-m reflector + 10K CCD.
H21 Astronomical Research Observatory, Westfield.  Observer R. Holmes.
    Measurers S. Foglia, L. Buzzi, T. Linder, R. Holmes.  0.81-m f/4.0
    astrograph + CCD.

Orbital elements:
2020 QP3                                                 Earth MOID = 0.1600 AU
Epoch 2020 May 31.0 TT = JDT 2459000.5                  Bell                    
M 320.11390              (2000.0)            P               Q                  
n   0.27714169     Peri.   81.91359     +0.88774299     -0.45834347             
a   2.3298867      Node   305.35648     +0.39897419     +0.81246926             
e   0.5083325      Incl.    3.00968     +0.22963446     +0.36029845             
P   3.56           H   22.80          G   0.15           U   9                  
Residuals in seconds of arc
200818 G96  0.1-  0.3+    200819 F51  0.1-  0.0+    200821 033  0.2-  0.1-
200818 G96  0.4+  0.4-    200819 F51  0.1+  0.0+    200821 033  0.2+  0.4-
200818 G96  0.1-  0.1-    200819 F51  0.0+  0.1+    200821 H21  0.1-  0.2+
200818 G96  0.0-  0.2+    200821 033  0.2-  0.6-    200821 H21  0.1-  0.0+
200819 F51  0.0-  0.0-    200821 033  0.3-  0.0-    200821 H21  0.2+  0.0-

Ephemeris:
2020 QP3                 a,e,i = 2.33, 0.51, 3                   q = 1.1455
Date    TT    R. A. (2000) Decl.     Delta      r    Elong.  Phase     V
2020 07 22    22 35 37.8 -07 43 47   0.5825  1.5170   141.7    24.5    23.7
...
2020 08 06    22 47 43.6 -04 39 56   0.4458  1.4235   152.0    19.5    22.8
...
2020 08 14    22 52 52.4 -02 45 30   0.3845  1.3763   157.6    16.3    22.3
...
2020 08 20    22 56 12.5 -01 09 31   0.3439  1.3426   161.6    13.8    21.9
2020 08 21    22 56 43.9 -00 52 32   0.3376  1.3371   162.2    13.4    21.8
2020 08 22    22 57 14.9 -00 35 15   0.3313  1.3317   162.8    12.9    21.8
...
2020 08 28    23 00 16.7 +01 15 36   0.2967  1.3002   166.2    10.7    21.4
...
2020 09 05    23 04 31.4 +04 04 53   0.2572  1.2616   168.9     8.9    21.0
...
2020 09 20    23 16 04.4 +10 36 25   0.2026  1.2016   165.6    12.0    20.5

M. P. C. Staff               (C) Copyright 2020 MPC           M.P.E.C. 2020-Q144




More information about the Iaude mailing list